Flag for Chile Weather past 2 weeks in Iquique, Chile

Now
66 °F

Sunny.


Feels Like: 66 °F
Forecast: 62 / 69 °F
Wind: 12 mph from Southwest

Location: Iquique / Diego Arac

Current Time: Sep 2, 2015 at 4:14:04 PM

Latest Report: Sep 2, 2015 at 3:00 PM


Visibility: 10 mi

Pressure: 29.98 "Hg

Humidity: 68%

Dew point: 55 °F

Location of IquiqueLocation

Historic Weather in Iquique — Graph

°F

Iquique temperature yesterday

Maximum temperature yesterday: 68 °F (at 3:00 PM)
Minimum temperature yesterday: 63 °F (at 7:00 AM)
Average temperature yesterday: 65 °F

Past Weeks' High & Low Weather Summary

 TemperatureHumidityPressure
High68 °F (Sep 1, 3:00 PM)82% (Aug 20, 8:00 AM)30.09 "Hg (Aug 20, 8:00 AM)
Low57 °F (Aug 20, 6:00 AM)56% (Aug 29, 12:00 PM)29.83 "Hg (Aug 29, 5:00 PM)
Average62 °F70%29.98 "Hg
* Reported Aug 18 3:00 PM — Sep 2 3:00 PM, Iquique, Weather by CustomWeather, © 2015

Note: Actual official high and low records may vary slightly from our data, if they occured in-between our weather recording intervals... More about our weather records

Advertising

Iquique weather history for previous 24 hours

 ConditionsComfort  
Time TempWeatherWind HumidityBarometerVisibility
3:00 PM
Wed, Sep 2
66 °FSunny.12 mph68%29.98 "Hg10 mi
2:00 PM66 °FSunny.12 mph64%30.01 "Hg10 mi
1:00 PM66 °FSunny.10 mph64%30.01 "Hg10 mi
12:00 PM66 °FSunny.9 mph64%30.04 "Hg10 mi
11:00 AM66 °FSunny.8 mph64%30.04 "Hg10 mi
10:00 AM64 °FSunny.5 mph68%30.04 "Hg10 mi
9:00 AM63 °FSunny.2 mph68%30.04 "Hg10 mi
8:00 AM63 °FSunny.3 mph68%30.01 "Hg10 mi
7:00 AM63 °FSunny.6 mph68%30.01 "Hg10 mi
6:00 AM63 °FClear.5 mph68%30.01 "Hg10 mi
5:00 AM63 °FClear.6 mph68%30.01 "Hg10 mi
4:00 AM63 °FPartly cloudy.8 mph68%30.01 "HgN/A
3:00 AM64 °FOvercast.5 mph68%30.04 "HgN/A
2:00 AM64 °FOvercast.6 mph68%30.04 "HgN/A
1:00 AM64 °FPassing clouds.7 mph68%30.04 "HgN/A
12:00 AM64 °FPassing clouds.5 mph68%30.04 "HgN/A
11:00 PM
Tue, Sep 1
64 °FPassing clouds.6 mph68%30.04 "HgN/A
10:00 PM64 °FPassing clouds.8 mph68%30.01 "HgN/A
9:00 PM64 °FPassing clouds.9 mph73%30.01 "HgN/A
8:00 PM64 °FPassing clouds.9 mph68%29.98 "HgN/A
6:00 PM66 °FSunny.7 mph64%29.98 "Hg10 mi
5:00 PM68 °FSunny.8 mph60%29.98 "Hg10 mi
4:00 PM68 °FSunny.9 mph60%30.01 "Hg10 mi
Weather by CustomWeather, © 2015

See weather overviewHow to use our weather pages